{"data":{"norad_id":41922,"epoch":"2026-09-20T03:57:02.787840Z","epoch_age_seconds":44389,"freshness":"FRESH","line1":"1 41922U 17003F   26263.16461560  .00000140  00000+0  43076-4 0  9995","line2":"2 41922  86.3949  48.7411 0002463  92.6544 267.4933 14.34220591506881","mean_motion":14.34220591,"eccentricity":0.0002463,"inclination_deg":86.3949,"raan_deg":48.7411,"arg_perigee_deg":92.6544,"mean_anomaly_deg":267.4933,"bstar":4.3076e-5,"rev_number":50688,"period_min":100.40296513913,"perigee_km":775.89523231789,"apogee_km":779.42017678935,"semimajor_km":7155.7947045536,"source":"CELESTRAK","updated_at":"2026-09-20T09:00:36.320709Z"}}